KPAEKOLM

Guest
Details From KPAE - Snohomish Co
To KOLM - Olympia
Flight Number -
Tags Decoded
Created
Modified
Stats Distance 62 nm / 115 km
Max Altitude 0 ft / 0 m
Waypoints 2
Social Downloads 0
Likes 0
Share VATSIM

Download

Looking for another format? Having issues loading an existing format? Contact us
Advertisement - Login to hide

Notes

Decoded

Route

KPAE KOLM

ID Type Via Altitude Latitude Longitude Leg Dist Tot Dist Heading (true) Name
O KPAE APT - 0 ft / 0 m 47.90642˚ -122.27170˚ - 0 nm - -
O KOLM APT - 0 ft / 0 m 46.97116˚ -122.90824˚ 61 nm 61 nm 205° / 204° -

Altitude Profile

Advertisement - Login to hide

KPAE

Details ICAO KPAE (PAE)
Name SNOHOMISH CO
Region United States
Timezone America/Los_Angeles (UTC-8.0)
Stats Elevation 606 ft / 185 m (AMSL)
Location 47.905980° -122.279142°
Runways 3
Magnetic Variation 15.789° E

METAR

KPAE 130914Z AUTO 01003KT 9SM FEW006 04/03 A3041 RMK AO2 T00440033 $

Decode

TAF

TAF KPAE 130520Z 1306/1406 00000KT P6SM BKN200 FM131300 01002KT 1SM BR VCFG SCT001 FM132000 36003KT P6SM SKC

Decode

Departure Runways

ID Width Length Bearing (true) Bearing (mag) Surface Threshold Offset Overrun Length
11 75 ft / 23 m 4,508 ft / 1,374 m 134.22° 118.43° Asphalt 801 ft / 244 m 0 ft / 0 m
16L 75 ft / 23 m 3,000 ft / 915 m 179.56° 163.77° Asphalt 0 ft / 0 m 0 ft / 0 m
16R 151 ft / 46 m 9,404 ft / 2,867 m 179.13° 163.34° Asphalt 400 ft / 122 m 220 ft / 67 m
29 75 ft / 23 m 4,508 ft / 1,374 m 314.23° 298.44° Asphalt 0 ft / 0 m 0 ft / 0 m
34L 151 ft / 46 m 9,404 ft / 2,867 m 359.13° 343.34° Asphalt 0 ft / 0 m 404 ft / 123 m
34R 75 ft / 23 m 3,000 ft / 915 m 359.56° 343.77° Asphalt 0 ft / 0 m 0 ft / 0 m

KOLM

Details ICAO KOLM (OLM)
Name OLYMPIA
Region United States
Timezone America/Los_Angeles (UTC-8.0)
Stats Elevation 209 ft / 64 m (AMSL)
Location 46.969312° -122.902479°
Runways 2
Magnetic Variation 15.675° E

METAR

KOLM 130854Z AUTO 33003KT 10SM BKN032 OVC100 02/01 A3043 RMK AO2 SLP305 T00220011 50004

Decode

TAF

TAF KOLM 130520Z 1306/1406 00000KT P6SM SKC FM130900 00000KT 1/4SM FZFG VV001 FM131900 05003KT 1/2SM FG BKN001 FM132100 05003KT 4SM BR SCT002 FM132300 03006KT P6SM SKC

Decode

Destination Runways

ID Width Length Bearing (true) Bearing (mag) Surface Threshold Offset Overrun Length
08 151 ft / 46 m 4,147 ft / 1,264 m 103.71° 88.04° Asphalt 0 ft / 0 m 0 ft / 0 m
17 151 ft / 46 m 5,503 ft / 1,677 m 191.27° 175.60° Asphalt 0 ft / 0 m 600 ft / 183 m
26 151 ft / 46 m 4,147 ft / 1,264 m 283.72° 268.05° Asphalt 0 ft / 0 m 0 ft / 0 m
35 151 ft / 46 m 5,503 ft / 1,677 m 11.27° 355.60° Asphalt 0 ft / 0 m 0 ft / 0 m

Approach Navaids

Runway Type Ident Frequency Range Bearing (true) Bearing (mag) Slope Elevation
17 Localiser IOLM 111.90 MHz 18 nm / 33 km 191.30° 175.63° - 200 ft / 61 m (AMSL)
17 Glidescope IOLM 111.90 MHz 10 nm / 19 km 191.30° 175.63° 3.00° 192 ft / 59 m (AMSL)

Popular Alternatives